Flag for Zimbabwe Weather past 2 weeks in Harare, Zimbabwe

Now
72 °F

Passing clouds.


Feels Like: 77 °F
Forecast: 47 / 74 °F
Wind: 7 mph from Northeast

Location: Harare Kutsaga Airport

Current Time: May 27, 2015 at 6:08:51 PM

Latest Report: May 27, 2015 at 5:00 PM


Visibility: N/A

Pressure: 30.21 "Hg

Humidity: 44%

Dew point: 48 °F

Location of HarareLocation

Historic Weather in Harare — Graph

°F

Harare temperature yesterday

Maximum temperature yesterday: 75 °F (at 1:00 PM)
Minimum temperature yesterday: 46 °F (at 3:00 AM)
Average temperature yesterday: 60 °F

Past Weeks' High & Low Weather Summary

 TemperatureHumidityPressure
High79 °F (May 20, 1:00 PM)100% (May 13, 5:00 AM)30.42 "Hg (May 13, 5:00 AM)
Low45 °F (May 17, 5:00 AM)16% (May 20, 1:00 PM)30.18 "Hg (May 14, 4:00 PM)
Average62 °F61%30.30 "Hg
* Reported May 12 5:00 PM — May 27 5:00 PM, Harare, Weather by CustomWeather, © 2015

Note: Actual official high and low records may vary slightly from our data, if they occured in-between our weather recording intervals... More about our weather records

Advertising

Harare weather history for previous 24 hours

 ConditionsComfort  
Time TempWeatherWind HumidityBarometerVisibility
5:00 PM
Wed, May 27
72 °FPassing clouds.7 mph44%30.21 "HgN/A
4:00 PM73 °FPassing clouds.6 mph38%30.21 "HgN/A
3:00 PM75 °FSunny.5 mph36%30.21 "Hg10 mi
2:00 PM75 °FPassing clouds.6 mph36%30.21 "HgN/A
1:00 PM75 °FPassing clouds.8 mph39%30.24 "HgN/A
12:00 PM72 °FPassing clouds.6 mph44%30.27 "HgN/A
11:00 AM70 °FPassing clouds.7 mph46%30.30 "HgN/A
10:00 AM70 °FPassing clouds.7 mph50%30.30 "HgN/A
8:00 AM61 °FPassing clouds.6 mph72%30.30 "Hg6 mi
7:00 AM52 °FPassing clouds.5 mph94%30.27 "Hg6 mi
6:00 AM48 °FClear.6 mph100%30.24 "Hg10 mi
4:00 AM50 °FClear.3 mph94%30.24 "Hg10 mi
2:00 AM52 °FClear.6 mph82%30.24 "Hg10 mi
12:00 AM54 °FClear.8 mph77%30.24 "Hg10 mi
11:00 PM
Tue, May 26
55 °FClear.7 mph72%30.27 "Hg10 mi
9:00 PM54 °FClear.6 mph77%30.27 "Hg10 mi
8:00 PM55 °FClear.5 mph72%30.27 "Hg10 mi
7:00 PM59 °FClear.3 mph63%30.24 "Hg10 mi
6:00 PM64 °FClear.7 mph52%30.21 "Hg10 mi
Weather by CustomWeather, © 2015

See weather overviewHow to use our weather pages